Change the Weather History Date:

Thursday, January 17, 2013

  Actual Average Record
Temperature  
Mean Temperature -6 °F -  
Max Temperature 1 °F 15 °F 40 °F (1961)
Min Temperature -14 °F -9 °F -41 °F (1970)
Degree Days  
Heating Degree Days 72    
Moisture  
Dew Point -12 °F    
Average Humidity 73    
Maximum Humidity 83    
Minimum Humidity 60    
Precipitation  
Precipitation 0.00 in - - ()
Sea Level Pressure  
Sea Level Pressure 30.37 in    
Wind  
Wind Speed 2 mph (WNW)    
Max Wind Speed 9 mph    
Max Gust Speed -    
Visibility 9 miles    
Events Snow    
Averages and records for this station are not official NWS values.
T = Trace of Precipitation, MM = Missing Value Source: NWS Daily Summary

Daily Weather History Graph

Daily Weather History Graph

Search for Another Location

Airport or City:

Trip Planner

Search our weather history database for the weather conditions in past years. The results will help you decide how hot, cold, wet, or windy it might be!

Date:

Astronomy

Jan. 17, 2013 Rise Set
Actual Time 8:04 AM CST 4:53 PM CST
Civil Twilight 7:28 AM CST 5:28 PM CST
Nautical Twilight 6:49 AM CST 6:08 PM CST
Astronomical Twilight 6:12 AM CST 6:45 PM CST
Moon 10:34 AM CST (1/17) No Moon Set
Length of Visible Light 10h 00m
Length of Day
8h 49m
Waxing Crescent, 38% of the Moon is Illuminated
Jan 17
Waxing Crescent
Jan 18
First Quarter
Jan 26
Full
Feb 3
Last Quarter
Feb 10
New

Hourly Weather History & Observations

Time (CST) Temp. Windchill Dew Point Humidity Pressure Visibility Wind Dir Wind Speed Gust Speed Precip Events Conditions
12:53 AM -14.8 °F - -20.2 °F 77% 30.23 in 10.0 mi Calm Calm - N/A   Overcast
1:53 AM -13.0 °F - -20.9 °F 68% 30.36 in 10.0 mi Calm Calm - N/A   Overcast
2:53 AM -11.9 °F - -20.9 °F 64% 30.36 in 10.0 mi Calm Calm - N/A   Overcast
3:53 AM -9.9 °F - -18.9 °F 65% 30.35 in 10.0 mi Calm Calm - N/A   Overcast
4:53 AM -9.0 °F - -17.0 °F 68% 30.35 in 10.0 mi Calm Calm - N/A   Overcast
5:53 AM -8.0 °F - -15.0 °F 71% 30.36 in 8.0 mi Calm Calm - N/A   Overcast
6:53 AM -7.1 °F - -13.0 °F 75% 30.35 in 4.0 mi Calm Calm - 0.00 in Snow Light Snow
7:53 AM -7.1 °F - -11.9 °F 79% 30.38 in 9.0 mi Calm Calm - 0.00 in   Overcast
8:53 AM -6.0 °F - -11.0 °F 79% 30.40 in 10.0 mi Calm Calm - N/A   Overcast
9:27 AM -5.8 °F -16.7 °F -11.2 °F 77% 30.30 in 9.0 mi SW 4.6 mph - N/A   Overcast
9:53 AM -5.1 °F -13.6 °F -9.9 °F 80% 30.43 in 6.0 mi WSW 3.5 mph - N/A   Haze
10:53 AM -2.0 °F -10.1 °F -9.0 °F 72% 30.44 in 5.0 mi Variable 3.5 mph - N/A   Haze
11:53 AM -0.9 °F -15.3 °F -8.0 °F 72% 30.43 in 10.0 mi NW 8.1 mph - N/A   Mostly Cloudy
12:09 PM -0.4 °F -14.7 °F -7.6 °F 72% 30.31 in 10.0 mi NW 8.1 mph - N/A   Scattered Clouds
12:53 PM -0.0 °F -15.3 °F -8.0 °F 69% 30.42 in 10.0 mi NW 9.2 mph - N/A   Partly Cloudy
1:53 PM 1.0 °F -12.9 °F -9.0 °F 63% 30.41 in 10.0 mi WNW 8.1 mph - N/A   Clear
2:53 PM 1.9 °F -9.2 °F -9.0 °F 60% 30.41 in 10.0 mi WNW 5.8 mph - N/A   Clear
3:53 PM -0.0 °F -14.2 °F -9.9 °F 63% 30.41 in 10.0 mi NW 8.1 mph - N/A   Clear
4:53 PM -0.0 °F - -9.9 °F 63% 30.40 in 10.0 mi Calm Calm - N/A   Clear
5:53 PM -4.0 °F - -11.0 °F 72% 30.41 in 10.0 mi Calm Calm - N/A   Clear
6:53 PM -5.1 °F - -11.9 °F 72% 30.39 in 10.0 mi Calm Calm - N/A   Clear
7:53 PM -7.1 °F - -11.9 °F 79% 30.39 in 10.0 mi Calm Calm - N/A   Clear
8:53 PM -9.9 °F - -15.0 °F 78% 30.36 in 10.0 mi Calm Calm - N/A   Clear
9:53 PM -8.0 °F - -11.9 °F 83% 30.34 in 10.0 mi Calm Calm - N/A   Clear
10:53 PM -6.0 °F - -9.9 °F 83% 30.31 in 10.0 mi Calm Calm - N/A   Mostly Cloudy
11:53 PM -4.0 °F -12.4 °F -8.0 °F 83% 30.28 in 10.0 mi ESE 3.5 mph - N/A   Overcast